IW3HBX-13 Weather Reports


time (UTC)temp
C
wind
direction
speed
KPH
gust
KPH
rain 1hr
cm
rain 24hr
cm
rain mn
cm
humidity
%
barometer
mb
20260507210610 16 59 1.6 3.2 0.00 0.00 0.00 79 1015.9
20260507205410 16 66 1.6 4.8 0.00 0.00 0.00 78 1015.9
20260507204810 16 66 3.2 4.8 0.00 0.00 0.00 77 1015.8
20260507203608 16 60 4.8 4.8 0.00 0.00 0.00 77 1015.8
20260507203007 16 61 3.2 4.8 0.00 0.00 0.00 77 1015.8
20260507202409 16 70 4.8 6.4 0.00 0.00 0.00 77 1015.8
20260507201810 16 62 4.8 9.7 0.00 0.00 0.00 78 1015.7
20260507200607 16 65 4.8 4.8 0.00 0.00 0.00 78 1015.4
20260507195407 16 74 3.2 4.8 0.00 0.00 0.00 79 1015.5
20260507194810 16 76 3.2 6.4 0.00 0.00 0.00 79 1015.3
20260507193608 16 68 4.8 8.0 0.00 0.00 0.00 79 1015.1
20260507193007 16 66 6.4 9.7 0.00 0.00 0.00 79 1014.9
20260507192407 17 63 6.4 9.7 0.00 0.00 0.00 79 1014.9
20260507191808 17 66 4.8 9.7 0.00 0.00 0.00 78 1014.7
20260507191210 17 61 4.8 8.0 0.00 0.00 0.00 76 1014.6
20260507190607 17 66 4.8 6.4 0.00 0.00 0.00 74 1014.5
20260507185408 17 87 3.2 3.2 0.00 0.00 0.00 73 1014.4
20260507184808 17 79 3.2 6.4 0.00 0.00 0.00 72 1014.2
20260507183607 18 59 3.2 6.4 0.00 0.00 0.00 70 1014.1
20260507183007 18 69 3.2 6.4 0.00 0.00 0.00 70 1014.1
20260507182407 18 72 3.2 6.4 0.00 0.00 0.00 71 1014.0
20260507181807 18 64 4.8 6.4 0.00 0.00 0.00 72 1014.0
20260507180607 18 69 3.2 4.8 0.00 0.00 0.00 71 1013.9
20260507175407 18 75 6.4 8.0 0.00 0.00 0.00 69 1013.6
20260507174810 18 74 4.8 6.4 0.00 0.00 0.00 69 1013.5
20260507173607 18 71 4.8 8.0 0.00 0.00 0.00 69 1013.4
20260507173009 18 74 3.2 6.4 0.00 0.00 0.00 69 1013.3
20260507172407 18 60 4.8 8.0 0.00 0.00 0.00 70 1013.2
20260507171808 18 65 6.4 11.3 0.00 0.00 0.00 70 1013.2
20260507170607 18 56 4.8 12.9 0.00 0.00 0.00 70 1013.2
20260507165409 18 67 8.0 16.1 0.00 0.00 0.00 70 1013.2
20260507164807 19 73 8.0 12.9 0.00 0.00 0.00 68 1013.3
20260507164207 19 83 6.4 12.9 0.00 0.00 0.00 68 1013.1
20260507163607 20 76 4.8 9.7 0.00 0.00 0.00 67 1013.3
20260507163007 20 87 4.8 8.0 0.00 0.00 0.00 65 1013.1
20260507162410 20 67 9.7 14.5 0.00 0.00 0.00 66 1013.2
20260507161807 20 85 6.4 9.7 0.00 0.00 0.00 67 1013.2
20260507161207 20 60 4.8 9.7 0.00 0.00 0.00 68 1013.1
20260507160607 20 64 6.4 9.7 0.00 0.00 0.00 69 1013.1
20260507155407 20 73 6.4 14.5 0.00 0.00 0.00 69 1013.0
20260507154807 20 69 11.3 16.1 0.00 0.00 0.00 68 1013.0
20260507154209 20 63 9.7 16.1 0.00 0.00 0.00 66 1012.9
20260507153607 21 73 4.8 4.8 0.00 0.00 0.00 59 1012.8
20260507153007 21 74 4.8 8.0 0.00 0.00 0.00 58 1012.8
20260507152407 20 76 6.4 9.7 0.00 0.00 0.00 57 1012.8
20260507151808 21 81 6.4 9.7 0.00 0.00 0.00 57 1012.8
20260507151209 21 49 3.2 8.0 0.00 0.00 0.00 55 1012.8
20260507150607 20 64 4.8 8.0 0.00 0.00 0.00 57 1012.8
20260507145407 20 61 4.8 8.0 0.00 0.00 0.00 57 1012.6
20260507144807 20 300 0.0 0.0 0.00 0.00 0.00 59 1012.5
20260507144207 20 290 3.2 3.2 0.00 0.00 0.00 58 1012.6
20260507143607 20 294 4.8 6.4 0.00 0.00 0.00 57 1012.4
20260507143013 19 311 1.6 4.8 0.00 0.00 0.00 58 1012.6
20260507142408 20 313 4.8 8.0 0.00 0.00 0.00 58 1012.5
20260507141812 20 311 6.4 8.0 0.00 0.00 0.00 57 1012.6
20260507141210 20 325 6.4 9.7 0.00 0.00 0.00 56 1012.5
20260507140607 20 308 8.0 12.9 0.00 0.00 0.00 56 1012.7
20260507135407 22 245 4.8 9.7 0.00 0.00 0.00 47 1012.6
20260507134809 23 255 3.2 6.4 0.00 0.00 0.00 47 1012.6
20260507134207 23 209 4.8 8.0 0.00 0.05 0.00 47 1012.5
20260507133609 24 31 3.2 9.7 0.00 0.05 0.00 49 1012.7
20260507133007 23 134 3.2 4.8 0.00 0.08 0.00 50 1012.6
20260507132407 22 228 4.8 11.3 0.00 0.13 0.00 49 1012.5
20260507131810 23 222 4.8 6.4 0.00 0.15 0.00 49 1012.6
20260507131211 22 229 9.7 14.5 0.00 0.15 0.00 47 1012.6
20260507130612 23 221 3.2 6.4 0.00 0.23 0.00 47 1012.7
20260507125407 22 250 3.2 6.4 0.00 0.33 0.00 50 1012.7
20260507124807 23 258 3.2 6.4 0.00 0.33 0.00 50 1012.8
20260507124207 22 247 8.0 12.9 0.00 0.33 0.00 51 1012.7
20260507123608 21 237 3.2 4.8 0.00 0.33 0.00 56 1012.7
20260507123007 21 237 3.2 6.4 0.00 0.33 0.00 55 1012.7
20260507122412 22 235 4.8 8.0 0.00 0.33 0.00 55 1012.8
20260507121813 22 128 3.2 6.4 0.00 0.33 0.00 54 1012.8
20260507121212 23 206 3.2 8.0 0.00 0.33 0.00 53 1012.8
20260507120607 22 209 3.2 8.0 0.00 0.33 0.00 52 1012.9
20260507115407 22 231 1.6 3.2 0.00 0.33 0.00 55 1012.9
20260507114808 22 238 0.0 6.4 0.00 0.33 0.00 56 1013.0
20260507114207 22 130 1.6 4.8 0.00 0.33 0.00 58 1012.9
20260507113607 21 160 1.6 8.0 0.00 0.33 0.00 59 1013.0
20260507113007 21 234 4.8 8.0 0.00 0.33 0.00 60 1013.1
20260507112409 21 226 6.4 8.0 0.00 0.33 0.00 61 1013.1
20260507111813 20 226 3.2 4.8 0.00 0.33 0.00 61 1013.2
20260507111207 20 232 3.2 4.8 0.00 0.33 0.00 60 1013.3
20260507110608 21 218 6.4 9.7 0.00 0.33 0.00 61 1013.2
20260507105411 21 77 0.0 3.2 0.00 0.33 0.00 58 1013.3
20260507104810 21 238 3.2 8.0 0.00 0.33 0.00 59 1013.5
20260507104207 21 242 4.8 9.7 0.00 0.33 0.00 60 1013.6
20260507103609 20 231 4.8 9.7 0.00 0.33 0.00 62 1013.6
20260507103007 20 208 4.8 9.7 0.00 0.33 0.00 58 1013.5
20260507102409 20 234 3.2 6.4 0.00 0.33 0.00 61 1013.8
20260507101807 20 271 1.6 4.8 0.00 0.33 0.00 60 1013.9
20260507101207 21 207 4.8 8.0 0.00 0.33 0.00 59 1013.8
20260507100610 21 232 1.6 3.2 0.00 0.36 0.00 57 1013.9
20260507095407 19 238 0.0 4.8 0.00 0.36 0.00 60 1013.9
20260507094810 20 229 4.8 6.4 0.00 0.36 0.00 60 1013.9
20260507094207 20 314 1.6 4.8 0.00 0.41 0.00 62 1013.9
20260507093607 20 264 1.6 3.2 0.00 0.41 0.00 63 1013.8
20260507093007 19 268 3.2 4.8 0.00 0.41 0.00 64 1013.9
20260507092409 20 269 3.2 6.4 0.00 0.41 0.00 64 1013.9
20260507091807 20 265 3.2 4.8 0.00 0.41 0.00 62 1013.8
20260507091207 19 250 3.2 6.4 0.00 0.41 0.00 62 1013.8
20260507090607 19 245 0.0 0.0 0.00 0.41 0.00 70 1013.9
20260507085407 20 187 1.6 3.2 0.00 0.41 0.00 68 1013.8
20260507084808 18 236 1.6 3.2 0.00 0.41 0.00 70 1013.9
20260507084209 18 238 4.8 8.0 0.00 0.41 0.00 74 1013.8
20260507083607 18 226 1.6 3.2 0.00 0.41 0.00 74 1013.7
20260507083009 19 272 1.6 3.2 0.00 0.41 0.00 73 1013.7
20260507082407 18 286 1.6 4.8 0.00 0.41 0.00 74 1013.7
20260507081809 17 210 0.0 0.0 0.00 0.41 0.00 76 1013.6
20260507081208 17 239 0.0 1.6 0.00 0.41 0.00 81 1013.7
20260507075409 17 233 0.0 3.2 0.00 0.41 0.00 83 1013.6
20260507074808 17 250 3.2 3.2 0.00 0.41 0.00 82 1013.6
20260507074207 17 229 4.8 6.4 0.00 0.41 0.00 82 1013.5
20260507073007 16 227 3.2 8.0 0.00 0.41 0.00 88 1013.5
20260507072410 16 237 1.6 4.8 0.00 0.41 0.00 88 1013.4
20260507071807 17 231 3.2 4.8 0.00 0.41 0.00 87 1013.4
20260507071207 16 243 4.8 6.4 0.00 0.41 0.00 86 1013.3
20260507065410 18 322 1.6 3.2 0.00 0.41 0.00 78 1013.2
20260507064807 18 42 0.0 0.0 0.00 0.41 0.00 78 1013.2
20260507064208 17 53 1.6 4.8 0.00 0.41 0.00 82 1013.2
20260507063009 17 54 0.0 3.2 0.00 0.41 0.00 82 1013.1
20260507062407 18 334 0.0 3.2 0.00 0.41 0.00 82 1013.1
20260507061807 18 276 0.0 0.0 0.00 0.41 0.00 80 1013.1
20260507061207 17 270 0.0 0.0 0.00 0.41 0.00 81 1013.1
20260507055408 15 270 0.0 0.0 0.00 0.41 0.00 92 1013.1
20260507054810 15 270 0.0 0.0 0.00 0.41 0.00 94 1013.0
20260507054207 14 270 0.0 1.6 0.00 0.43 0.00 95 1012.8
20260507053007 13 276 0.0 0.0 0.00 0.43 0.00 96 1012.8
20260507052409 13 276 0.0 3.2 0.00 0.43 0.00 96 1012.8
20260507051809 13 282 0.0 0.0 0.00 0.43 0.00 96 1012.7
20260507051207 13 282 0.0 0.0 0.00 0.43 0.00 96 1012.7
20260507045410 13 282 0.0 0.0 0.00 0.48 0.00 96 1012.6
20260507044807 13 282 0.0 0.0 0.00 0.48 0.00 96 1012.4
20260507044209 13 282 0.0 0.0 0.00 0.48 0.00 96 1012.4
20260507043008 12 285 0.0 0.0 0.00 0.48 0.00 96 1012.3
20260507042409 13 285 0.0 0.0 0.00 0.48 0.00 96 1012.2
20260507041807 12 285 0.0 0.0 0.00 0.48 0.00 96 1012.1
20260507041210 12 285 0.0 0.0 0.00 0.48 0.00 96 1012.0
20260507035407 12 285 0.0 0.0 0.00 0.48 0.00 96 1011.9
20260507034807 12 285 0.0 0.0 0.00 0.48 0.00 96 1011.7
20260507034207 12 285 0.0 0.0 0.00 0.48 0.00 96 1011.7
20260507033007 12 285 0.0 0.0 0.00 0.48 0.00 96 1011.7
20260507032407 12 285 0.0 0.0 0.00 0.48 0.00 96 1011.8
20260507031808 12 285 0.0 0.0 0.00 0.48 0.00 96 1011.8
20260507031207 12 285 0.0 0.0 0.00 0.48 0.00 96 1011.8
20260507025408 12 285 0.0 0.0 0.00 0.48 0.00 96 1011.8
20260507024807 12 285 0.0 0.0 0.00 0.48 0.00 96 1011.7
20260507024207 13 285 0.0 0.0 0.00 0.48 0.00 96 1011.6
20260507023007 13 285 0.0 0.0 0.00 0.48 0.00 96 1011.6
20260507022409 13 285 0.0 0.0 0.00 0.48 0.00 96 1011.7
20260507021807 13 285 0.0 0.0 0.00 0.48 0.00 96 1011.7
20260507021207 13 285 0.0 0.0 0.00 0.48 0.00 96 1011.7
20260507015407 13 285 0.0 0.0 0.00 0.48 0.00 96 1011.5
20260507014809 13 285 0.0 0.0 0.00 0.48 0.00 96 1011.5
20260507014207 13 285 0.0 1.6 0.00 0.48 0.00 96 1011.5
20260507013610 13 294 1.6 3.2 0.00 0.48 0.00 96 1011.6
20260507013007 13 300 0.0 3.2 0.00 0.48 0.00 96 1011.6
20260507012407 13 300 0.0 3.2 0.00 0.48 0.00 95 1011.7
20260507011807 13 294 1.6 3.2 0.00 0.48 0.00 95 1011.6
20260507011209 13 294 0.0 3.2 0.00 0.48 0.00 95 1011.7
20260507005408 14 299 0.0 4.8 0.00 0.48 0.00 95 1011.7
20260507004807 14 288 0.0 3.2 0.00 0.48 0.00 94 1011.7
20260507004207 14 354 0.0 3.2 0.00 0.48 0.00 94 1011.7
20260507003607 14 66 1.6 3.2 0.00 0.48 0.00 94 1011.6
20260507003007 14 72 0.0 0.0 0.00 0.48 0.00 94 1011.5
20260507002407 14 78 1.6 3.2 0.00 0.48 0.00 94 1011.4
20260507001808 14 73 0.0 3.2 0.00 0.48 0.00 94 1011.4
20260507001209 14 4 1.6 3.2 0.00 0.48 0.00 94 1011.4
20260506235407 14 57 0.0 0.0 0.00 0.48 0.00 94 1011.7
20260506234807 14 57 0.0 0.0 0.00 0.48 0.00 94 1011.8
20260506234208 14 57 0.0 0.0 0.00 0.48 0.00 94 1011.6
20260506233607 13 57 0.0 0.0 0.00 0.48 0.00 94 1011.7
20260506233010 13 57 0.0 0.0 0.00 0.48 0.00 94 1011.6
20260506232410 14 57 3.2 3.2 0.00 0.48 0.00 94 1011.6
20260506231807 14 72 0.0 0.0 0.00 0.48 0.00 94 1011.5
20260506231210 14 72 0.0 0.0 0.00 0.48 0.00 94 1011.5
20260506230607 14 72 0.0 0.0 0.00 0.48 0.00 94 1011.6
20260506225407 14 61 0.0 0.0 0.00 0.48 0.00 94 1011.6
20260506224808 14 61 0.0 0.0 0.00 0.48 0.00 94 1011.5
20260506224209 14 61 0.0 3.2 0.00 0.48 0.00 93 1011.5
20260506223607 14 61 4.8 6.4 0.00 0.48 0.00 93 1011.5
20260506223007 14 56 0.0 0.0 0.00 0.48 0.00 93 1011.5
20260506222407 14 60 0.0 0.0 0.00 0.48 0.00 93 1011.5
20260506221810 14 56 0.0 0.0 0.00 0.48 0.00 93 1011.5
20260506221207 14 56 0.0 0.0 0.00 0.48 0.00 93 1011.6
20260506220607 14 56 0.0 0.0 0.00 0.48 0.00 93 1011.5
20260506215407 15 65 0.0 0.0 0.00 0.48 0.48 93 1011.4
20260506214807 14 68 0.0 3.2 0.00 0.48 0.48 93 1011.3
20260506214208 15 72 0.0 0.0 0.00 0.48 0.48 92 1011.3
20260506213610 15 72 0.0 0.0 0.00 0.48 0.48 92 1011.3
20260506213007 15 72 0.0 0.0 0.00 0.48 0.48 92 1011.4
20260506212407 15 70 0.0 1.6 0.00 0.48 0.48 92 1011.4
20260506211807 15 70 1.6 3.2 0.00 0.48 0.48 92 1011.4